When you browse on this site, cookies collect data to enhance your experience and personalize the content and advertising you see.
Visit our Privacy Policy to learn more. By continuing to use the site, you agree to this use of cookies and data.
  • In France
  • List of Countries
  • For 7 days
  • Water Temperature
  • Weather Map
  • Weather Widgets
  • user-avatar
    Login

    Hourly Weather Ario de Rayon

    Today, 19 September, Thursday

    Time Temperature Precipitation Wind Pressure Humidity
    00:00 +19°C° 0 mm 1 mps 633 mmHg 96%
    01:00 +19°C° 0 mm 1 mps 633 mmHg 96%
    02:00 +18°C° 0 mm 1 mps 632 mmHg 96%
    03:00 +18°C° 0 mm 1 mps 632 mmHg 97%
    04:00 +18°C° 0 mm 1 mps 632 mmHg 97%
    05:00 +18°C° 0 mm 1 mps 631 mmHg 97%
    06:00 +19°C° 0 mm 1 mps 632 mmHg 95%
    07:00 +20°C° 0 mm 1 mps 633 mmHg 92%
    08:00 +21°C° 0 mm 1 mps 634 mmHg 90%
    09:00 +21°C° 0.2 mm 1 mps 634 mmHg 89%
    10:00 +21°C° 0.2 mm 1 mps 634 mmHg 88%
    11:00 +20°C° 0.2 mm 2 mps 633 mmHg 87%
    12:00 +23°C° 0.1 mm 2 mps 633 mmHg 80%
    13:00 +24°C° 0.1 mm 2 mps 633 mmHg 73%
    14:00 +25°C° 0.1 mm 2 mps 633 mmHg 66%
    15:00 +24°C° 0.2 mm 2 mps 633 mmHg 72%
    16:00 +23°C° 0.2 mm 2 mps 632 mmHg 78%
    17:00 +22°C° 0.2 mm 1 mps 632 mmHg 84%
    18:00 +21°C° 0.1 mm 1 mps 632 mmHg 87%
    19:00 +20°C° 0.1 mm 1 mps 632 mmHg 91%
    20:00 +19°C° 0.1 mm 1 mps 632 mmHg 94%
    21:00 +19°C° 0 mm 1 mps 632 mmHg 94%
    22:00 +18°C° 0 mm 1 mps 632 mmHg 93%
    23:00 +18°C° 0 mm 1 mps 632 mmHg 93%

    Tomorrow, 20 September, Friday

    Time Temperature Precipitation Wind Pressure Humidity
    00:00 +18°C° 0 mm 1 mps 632 mmHg 94%
    01:00 +16°C° 0 mm 0 mps 631 mmHg 94%
    02:00 +16°C° 0 mm 0 mps 631 mmHg 95%
    03:00 +15°C° 0 mm 0 mps 631 mmHg 95%
    04:00 +15°C° 0 mm 0 mps 631 mmHg 95%
    05:00 +15°C° 0 mm 0 mps 630 mmHg 95%
    06:00 +17°C° 0 mm 0 mps 631 mmHg 89%
    07:00 +19°C° 0 mm 0 mps 632 mmHg 83%
    08:00 +21°C° 0 mm 0 mps 633 mmHg 77%
    09:00 +23°C° 0.2 mm 0 mps 634 mmHg 72%
    10:00 +25°C° 0.2 mm 0 mps 634 mmHg 66%
    11:00 +29°C° 0.2 mm 1 mps 634 mmHg 61%
    12:00 +28°C° 1.3 mm 1 mps 633 mmHg 65%
    13:00 +27°C° 1.3 mm 1 mps 632 mmHg 69%
    14:00 +26°C° 1.3 mm 2 mps 632 mmHg 73%
    15:00 +25°C° 1 mm 2 mps 631 mmHg 77%
    16:00 +24°C° 1 mm 1 mps 631 mmHg 81%
    17:00 +23°C° 1 mm 1 mps 631 mmHg 85%
    18:00 +22°C° 0.2 mm 1 mps 631 mmHg 89%
    19:00 +20°C° 0.2 mm 1 mps 631 mmHg 92%
    20:00 +19°C° 0.2 mm 1 mps 631 mmHg 95%
    21:00 +19°C° 0.1 mm 1 mps 631 mmHg 96%
    22:00 +18°C° 0.1 mm 1 mps 632 mmHg 96%
    23:00 +18°C° 0.1 mm 1 mps 632 mmHg 96%

    Day after tomorrow, 21 September, Saturday

    Time Temperature Precipitation Wind Pressure Humidity
    00:00 +18°C° 0 mm 1 mps 632 mmHg 96%
    01:00 +16°C° 0 mm 1 mps 631 mmHg 96%
    02:00 +16°C° 0 mm 1 mps 631 mmHg 96%
    03:00 +16°C° 0 mm 1 mps 631 mmHg 96%
    04:00 +15°C° 0 mm 1 mps 631 mmHg 95%
    05:00 +15°C° 0 mm 1 mps 631 mmHg 95%
    06:00 +16°C° 0 mm 0 mps 632 mmHg 90%
    07:00 +18°C° 0 mm 0 mps 633 mmHg 86%
    08:00 +20°C° 0 mm 0 mps 634 mmHg 81%
    09:00 +23°C° 0 mm 0 mps 635 mmHg 71%
    10:00 +25°C° 0 mm 0 mps 635 mmHg 62%
    11:00 +28°C° 0 mm 0 mps 635 mmHg 52%
    12:00 +30°C° 0.2 mm 1 mps 635 mmHg 53%
    13:00 +29°C° 0.2 mm 1 mps 634 mmHg 54%
    14:00 +29°C° 0.2 mm 1 mps 633 mmHg 56%
    15:00 +27°C° 0.6 mm 1 mps 632 mmHg 65%
    16:00 +25°C° 0.6 mm 1 mps 632 mmHg 75%
    17:00 +23°C° 0.6 mm 1 mps 631 mmHg 84%
    18:00 +22°C° 0.3 mm 1 mps 632 mmHg 87%
    19:00 +21°C° 0.3 mm 1 mps 632 mmHg 89%
    20:00 +20°C° 0.3 mm 1 mps 632 mmHg 92%
    21:00 +20°C° 0.5 mm 1 mps 632 mmHg 92%
    22:00 +20°C° 0.5 mm 1 mps 632 mmHg 93%
    23:00 +19°C° 0.5 mm 1 mps 633 mmHg 93%

    22 September, Sunday

    Time Temperature Precipitation Wind Pressure Humidity
    00:00 +17°C° 0 mm 0 mps 632 mmHg 92%
    01:00 +17°C° 0 mm 0 mps 632 mmHg 92%
    02:00 +17°C° 0 mm 0 mps 632 mmHg 91%
    03:00 +17°C° 0 mm 0 mps 632 mmHg 92%
    04:00 +16°C° 0 mm 0 mps 632 mmHg 93%
    05:00 +18°C° 0 mm 1 mps 632 mmHg 94%
    06:00 +20°C° 0 mm 1 mps 633 mmHg 89%
    07:00 +21°C° 0 mm 1 mps 634 mmHg 84%
    08:00 +23°C° 0 mm 1 mps 635 mmHg 79%
    09:00 +25°C° 0 mm 1 mps 635 mmHg 70%
    10:00 +28°C° 0 mm 1 mps 635 mmHg 61%
    11:00 +30°C° 0 mm 1 mps 636 mmHg 52%
    12:00 +30°C° 0.1 mm 1 mps 635 mmHg 49%
    13:00 +31°C° 0.1 mm 1 mps 634 mmHg 47%
    14:00 +31°C° 0.1 mm 1 mps 634 mmHg 44%
    15:00 +29°C° 0.2 mm 1 mps 633 mmHg 53%
    16:00 +27°C° 0.2 mm 1 mps 632 mmHg 63%
    17:00 +25°C° 0.2 mm 1 mps 631 mmHg 72%
    18:00 +23°C° 0.1 mm 1 mps 632 mmHg 76%
    19:00 +22°C° 0.1 mm 1 mps 632 mmHg 81%
    20:00 +20°C° 0.1 mm 1 mps 632 mmHg 85%
    21:00 +20°C° 0 mm 1 mps 632 mmHg 86%
    22:00 +20°C° 0 mm 1 mps 632 mmHg 86%
    23:00 +19°C° 0 mm 1 mps 633 mmHg 87%

    23 September, Monday

    Time Temperature Precipitation Wind Pressure Humidity
    00:00 +19°C° 0.1 mm 1 mps 632 mmHg 87%
    01:00 +17°C° 0.1 mm 0 mps 632 mmHg 88%
    02:00 +17°C° 0.1 mm 0 mps 632 mmHg 89%
    03:00 +16°C° 0 mm 0 mps 632 mmHg 90%
    04:00 +16°C° 0 mm 0 mps 632 mmHg 91%
    05:00 +16°C° 0 mm 0 mps 632 mmHg 93%
    06:00 +18°C° 0 mm 0 mps 633 mmHg 87%
    07:00 +20°C° 0 mm 0 mps 634 mmHg 81%
    08:00 +21°C° 0 mm 0 mps 635 mmHg 75%
    09:00 +24°C° 0.2 mm 0 mps 635 mmHg 70%
    10:00 +28°C° 0.2 mm 1 mps 636 mmHg 64%
    11:00 +30°C° 0.2 mm 1 mps 636 mmHg 59%
    12:00 +29°C° 0.8 mm 1 mps 635 mmHg 60%
    13:00 +29°C° 0.8 mm 1 mps 634 mmHg 61%
    14:00 +28°C° 0.8 mm 1 mps 633 mmHg 62%
    15:00 +27°C° 0.8 mm 1 mps 633 mmHg 70%
    16:00 +25°C° 0.8 mm 1 mps 632 mmHg 77%
    17:00 +24°C° 0.8 mm 1 mps 632 mmHg 85%
    18:00 +22°C° 0.5 mm 1 mps 632 mmHg 88%
    19:00 +21°C° 0.5 mm 1 mps 632 mmHg 90%
    20:00 +20°C° 0.5 mm 1 mps 632 mmHg 92%
    21:00 +19°C° 0.2 mm 1 mps 632 mmHg 93%
    22:00 +19°C° 0.2 mm 1 mps 632 mmHg 94%
    23:00 +18°C° 0.2 mm 1 mps 632 mmHg 94%

    24 September, Tuesday

    Time Temperature Precipitation Wind Pressure Humidity
    00:00 +18°C° 0.1 mm 1 mps 632 mmHg 95%
    01:00 +18°C° 0.1 mm 1 mps 631 mmHg 95%
    02:00 +16°C° 0.1 mm 0 mps 631 mmHg 95%
    03:00 +15°C° 0 mm 0 mps 631 mmHg 95%
    04:00 +15°C° 0 mm 0 mps 631 mmHg 95%
    05:00 +15°C° 0 mm 0 mps 631 mmHg 95%
    06:00 +17°C° 0 mm 0 mps 632 mmHg 91%
    07:00 +19°C° 0 mm 0 mps 633 mmHg 86%
    08:00 +21°C° 0 mm 0 mps 634 mmHg 82%
    09:00 +23°C° 0.2 mm 0 mps 635 mmHg 74%
    10:00 +25°C° 0.2 mm 0 mps 635 mmHg 66%
    11:00 +28°C° 0.2 mm 0 mps 635 mmHg 58%
    12:00 +29°C° 0.2 mm 1 mps 634 mmHg 56%
    13:00 +29°C° 0.2 mm 1 mps 634 mmHg 54%
    14:00 +29°C° 0.2 mm 2 mps 633 mmHg 52%
    15:00 +27°C° 0.4 mm 2 mps 632 mmHg 62%
    16:00 +26°C° 0.4 mm 1 mps 632 mmHg 71%
    17:00 +24°C° 0.4 mm 1 mps 631 mmHg 81%
    18:00 +22°C° 0.2 mm 1 mps 631 mmHg 85%
    19:00 +21°C° 0.2 mm 1 mps 631 mmHg 88%
    20:00 +19°C° 0.2 mm 1 mps 631 mmHg 92%
    21:00 +19°C° 0 mm 1 mps 631 mmHg 93%
    22:00 +19°C° 0 mm 1 mps 631 mmHg 94%
    23:00 +18°C° 0 mm 1 mps 631 mmHg 96%
    Show more